Weather History for VAAH - February, 2013

Change the Weather History Date:

Thursday, February 7, 2013

  Actual Average Record
Temperature  
Mean Temperature 66 °F -  
Max Temperature 80 °F 87 °F 91 °F (2007)
Min Temperature 52 °F 60 °F 46 °F (2008)
Cooling Degree Days 1    
Growing Degree Days 16 (Base 50)    
Moisture  
Dew Point 41 °F    
Average Humidity 42    
Maximum Humidity 62    
Minimum Humidity 17    
Precipitation  
Precipitation 0.00 in 0.00 in - ()
Sea Level Pressure  
Sea Level Pressure 29.99 in    
Wind  
Wind Speed 5 mph ()    
Max Wind Speed 14 mph    
Max Gust Speed -    
Visibility 2.7 miles    
Events      
Averages and records for this station are not official NWS values.
T = Trace of Precipitation, MM = Missing Value Source: Averaged Metar Reports

Daily Weather History Graph

Daily Weather History Graph

Search for Another Location

Airport or City:

Trip Planner

Search our weather history database for the weather conditions in past years. The results will help you decide how hot, cold, wet, or windy it might be!

Date:

Astronomy

Feb. 07, 2013 Rise Set
Actual Time 7:16 AM IST 6:30 PM IST
Civil Twilight 6:53 AM IST 6:54 PM IST
Nautical Twilight 6:26 AM IST 7:20 PM IST
Astronomical Twilight 6:00 AM IST 7:47 PM IST
Moon 4:20 AM IST (2/7) 3:35 PM IST (2/7)
Length of Visible Light 12h 00m
Length of Day
11h 14m
Waning Crescent, 12% of the Moon is Illuminated
Feb 7
Waning Crescent
Feb 10
New
Feb 18
First Quarter
Feb 26
Full
Mar 5
Last Quarter

Hourly Weather History & Observations

Time (IST) Temp. Dew Point Humidity Pressure Visibility Wind Dir Wind Speed Gust Speed Precip Events Conditions
12:10 AM 59.0 °F 37.4 °F 45% 30.04 in 2.5 mi NW 4.6 mph - N/A   Smoke
12:40 AM 57.2 °F 35.6 °F 44% 30.01 in 2.5 mi NW 3.5 mph - N/A   Smoke
1:10 AM 55.4 °F 37.4 °F 51% 30.01 in 2.5 mi NW 3.5 mph - N/A   Smoke
1:40 AM 55.4 °F 37.4 °F 51% 30.01 in 2.5 mi WNW 3.5 mph - N/A   Smoke
2:10 AM 53.6 °F 35.6 °F 51% 30.01 in 2.5 mi WNW 3.5 mph - N/A   Smoke
2:30 AM 57 °F 42 °F 46% 30.03 in 2 mi NW 3.5 mph - -  
2:40 AM 53.6 °F 39.2 °F 58% 30.01 in 2.5 mi NNE 3.5 mph - N/A   Haze
3:10 AM 51.8 °F 39.2 °F 62% 30.01 in 2.5 mi NE 3.5 mph - N/A   Haze
3:40 AM 53.6 °F 37.4 °F 54% 30.01 in 2.5 mi NNE 5.8 mph - N/A   Haze
4:10 AM 51.8 °F 37.4 °F 58% 30.01 in 2.5 mi NE 3.5 mph - N/A   Haze
4:40 AM 51.8 °F 37.4 °F 58% 30.01 in 2.5 mi NE 3.5 mph - N/A   Haze
5:10 AM 50.0 °F 37.4 °F 62% 30.01 in 2.5 mi NE 3.5 mph - N/A   Haze
5:30 AM 54 °F 43 °F 57% 30.03 in 2 mi NNW 2.3 mph - -  
5:40 AM 50.0 °F 37.4 °F 62% 30.01 in 2.5 mi NE 3.5 mph - N/A   Haze
6:10 AM 50.0 °F 37.4 °F 62% 30.01 in 2.2 mi NE 3.5 mph - N/A   Haze
6:40 AM 50.0 °F 37.4 °F 62% 30.01 in 2.2 mi NE 4.6 mph - N/A   Haze
7:40 AM 51.8 °F 35.6 °F 54% 30.04 in 1.6 mi NE 4.6 mph - N/A   Haze
8:10 AM 55.4 °F 37.4 °F 51% 30.04 in 1.6 mi NE 3.5 mph - N/A   Haze
8:30 AM 58 °F 41 °F 42% 30.08 in 2 mi North 3.5 mph - -   Smoke
9:10 AM 62.6 °F 37.4 °F 39% 30.06 in 1.9 mi ENE 9.2 mph - N/A   Smoke
9:40 AM 66.2 °F 41.0 °F 40% 30.06 in 1.9 mi ENE 9.2 mph - N/A   Smoke
10:40 AM 69.8 °F 42.8 °F 38% 30.06 in 3.7 mi ENE 12.7 mph - N/A   Unknown
11:10 AM 71.6 °F 42.8 °F 35% 30.06 in 3.7 mi ENE 13.8 mph - N/A   Unknown
11:30 AM 73 °F 44 °F 24% 30.09 in 2 mi NE 6.9 mph - -  
11:40 AM 73.4 °F 44.6 °F 36% 30.04 in 3.7 mi ENE 11.5 mph - N/A   Unknown
12:10 PM 75.2 °F 44.6 °F 34% 30.01 in 3.7 mi ENE 10.4 mph - N/A   Unknown
12:40 PM 77.0 °F 44.6 °F 32% 30.01 in 3.7 mi ENE 11.5 mph - N/A   Unknown
1:10 PM 77.0 °F 44.6 °F 32% 29.98 in 3.7 mi ENE 11.5 mph - N/A   Unknown
1:40 PM 78.8 °F 44.6 °F 30% 29.95 in 3.7 mi ENE 11.5 mph - N/A   Unknown
2:30 PM 80 °F 47 °F 21% 29.97 in 2 mi North 5.8 mph - -  
2:40 PM 80.6 °F 44.6 °F 28% 29.92 in 3.7 mi ENE 10.4 mph - N/A   Unknown
3:40 PM 80.6 °F 46.4 °F 30% 29.92 in 3.7 mi ENE 11.5 mph - N/A   Unknown
4:10 PM 80.6 °F 46.4 °F 30% 29.89 in 3.7 mi ENE 10.4 mph - N/A   Unknown
5:10 PM 80.6 °F 41.0 °F 24% 29.89 in 3.7 mi NE 10.4 mph - N/A   Unknown
5:30 PM 79 °F 42 °F 17% 29.94 in 2 mi North 4.6 mph - -  
5:40 PM 78.8 °F 42.8 °F 28% 29.89 in 3.7 mi NE 9.2 mph - N/A   Unknown
6:10 PM 77.0 °F 42.8 °F 29% 29.92 in 3.7 mi NE 6.9 mph - N/A   Unknown
6:40 PM 73.4 °F 44.6 °F 36% 29.92 in 3.1 mi NNE 4.6 mph - N/A   Smoke
7:40 PM 69.8 °F 44.6 °F 40% 29.95 in 2.5 mi NNE 4.6 mph - N/A   Smoke
8:10 PM 69.8 °F 41.0 °F 35% 29.95 in 2.5 mi NE 5.8 mph - N/A   Smoke
8:30 PM 70 °F 47 °F 33% 29.98 in 2 mi NW 3.5 mph - -  
8:40 PM 68.0 °F 42.8 °F 40% 29.95 in 2.5 mi NNE 3.5 mph - N/A   Smoke
9:10 PM 66.2 °F 44.6 °F 46% 29.98 in 2.5 mi North 3.5 mph - N/A   Smoke
9:40 PM 64.4 °F 44.6 °F 49% 29.98 in 2.5 mi North 4.6 mph - N/A   Smoke
10:10 PM 64.4 °F 42.8 °F 45% 29.98 in 2.5 mi North 4.6 mph - N/A   Smoke
10:40 PM 60.8 °F 42.8 °F 52% 29.98 in 2.5 mi NNE 4.6 mph - N/A   Smoke
11:30 PM 66 °F 42 °F 29% 29.99 in 2 mi North 6.9 mph - -  
11:40 PM 62.6 °F 41.0 °F 45% 29.98 in 2.5 mi North 5.8 mph - N/A   Smoke